Year,Month,Day,Hour,Minute,Value (Times are PST for temperature in C)
2017,08,22,00,00,15.40
2017,08,22,00,01,15.40
2017,08,22,00,02,15.40
2017,08,22,00,03,15.40
2017,08,22,00,04,15.30
2017,08,22,00,05,15.30
2017,08,22,00,06,15.30
2017,08,22,00,07,15.30
2017,08,22,00,08,15.30
2017,08,22,00,09,15.30
2017,08,22,00,10,15.30
2017,08,22,00,11,15.30
2017,08,22,00,12,15.30
2017,08,22,00,13,15.30
2017,08,22,00,14,15.30
2017,08,22,00,15,15.30
2017,08,22,00,16,15.30
2017,08,22,00,17,15.30
2017,08,22,00,18,15.20
2017,08,22,00,19,15.20
2017,08,22,00,20,15.20
2017,08,22,00,21,15.20
2017,08,22,00,22,15.20
2017,08,22,00,23,15.20
2017,08,22,00,24,15.20
2017,08,22,00,25,15.20
2017,08,22,00,26,15.20
2017,08,22,00,27,15.20
2017,08,22,00,28,15.20
2017,08,22,00,29,15.20
2017,08,22,00,30,15.10
2017,08,22,00,31,15.10
2017,08,22,00,32,15.10
2017,08,22,00,33,15.10
2017,08,22,00,34,15.10
2017,08,22,00,35,15.10
2017,08,22,00,36,15.10
2017,08,22,00,37,15.10
2017,08,22,00,38,15.10
2017,08,22,00,39,15.10
2017,08,22,00,40,15.10
2017,08,22,00,41,15.10
2017,08,22,00,42,15.00
2017,08,22,00,43,15.00
2017,08,22,00,44,15.00
2017,08,22,00,45,15.00
2017,08,22,00,46,14.90
2017,08,22,00,47,14.90
2017,08,22,00,48,14.90
2017,08,22,00,49,14.90
2017,08,22,00,50,14.90
2017,08,22,00,51,14.90
2017,08,22,00,52,14.90
2017,08,22,00,53,14.90
2017,08,22,00,54,14.80
2017,08,22,00,55,14.80
2017,08,22,00,56,14.80
2017,08,22,00,57,14.80
2017,08,22,00,58,14.80
2017,08,22,00,59,14.80
2017,08,22,01,00,14.80
2017,08,22,01,01,14.80
2017,08,22,01,02,14.80
2017,08,22,01,03,14.80
2017,08,22,01,04,14.80
2017,08,22,01,05,14.80
2017,08,22,01,06,14.80
2017,08,22,01,07,14.80
2017,08,22,01,08,14.80
2017,08,22,01,09,14.80
2017,08,22,01,10,14.80
2017,08,22,01,11,14.80
2017,08,22,01,12,14.80
2017,08,22,01,13,14.80
2017,08,22,01,14,14.80
2017,08,22,01,15,14.80
2017,08,22,01,16,14.80
2017,08,22,01,17,14.80
2017,08,22,01,18,14.70
2017,08,22,01,19,14.70
2017,08,22,01,20,14.70
2017,08,22,01,21,14.70
2017,08,22,01,22,14.70
2017,08,22,01,23,14.70
2017,08,22,01,24,14.70
2017,08,22,01,25,14.70
2017,08,22,01,26,14.70
2017,08,22,01,27,14.70
2017,08,22,01,28,14.70
2017,08,22,01,29,14.70
2017,08,22,01,30,14.60
2017,08,22,01,31,14.60
2017,08,22,01,32,14.60
2017,08,22,01,33,14.60
2017,08,22,01,34,14.60
2017,08,22,01,35,14.60
2017,08,22,01,36,14.50
2017,08,22,01,37,14.50
2017,08,22,01,38,14.50
2017,08,22,01,39,14.50
2017,08,22,01,40,14.50
2017,08,22,01,41,14.50
2017,08,22,01,42,14.50
2017,08,22,01,43,14.50
2017,08,22,01,44,14.50
2017,08,22,01,45,14.50
2017,08,22,01,46,14.50
2017,08,22,01,47,14.50
2017,08,22,01,48,14.50
2017,08,22,01,49,14.50
2017,08,22,01,50,14.40
2017,08,22,01,51,14.40
2017,08,22,01,52,14.40
2017,08,22,01,53,14.40
2017,08,22,01,54,14.40
2017,08,22,01,55,14.40
2017,08,22,01,56,14.40
2017,08,22,01,57,14.40
2017,08,22,01,58,14.40
2017,08,22,01,59,14.40
2017,08,22,02,00,14.40
2017,08,22,02,01,14.40
2017,08,22,02,02,14.40
2017,08,22,02,03,14.40
2017,08,22,02,04,14.40
2017,08,22,02,05,14.40
2017,08,22,02,06,14.40
2017,08,22,02,07,14.40
2017,08,22,02,08,14.30
2017,08,22,02,09,14.30
2017,08,22,02,10,14.30
2017,08,22,02,11,14.30
2017,08,22,02,12,14.30
2017,08,22,02,13,14.30
2017,08,22,02,14,14.30
2017,08,22,02,15,14.30
2017,08,22,02,16,14.30
2017,08,22,02,17,14.30
2017,08,22,02,18,14.30
2017,08,22,02,19,14.30
2017,08,22,02,20,14.30
2017,08,22,02,21,14.30
2017,08,22,02,22,14.30
2017,08,22,02,23,14.30
2017,08,22,02,24,14.30
2017,08,22,02,25,14.30
2017,08,22,02,26,14.30
2017,08,22,02,27,14.30
2017,08,22,02,28,14.30
2017,08,22,02,29,14.30
2017,08,22,02,30,14.20
2017,08,22,02,31,14.20
2017,08,22,02,32,14.20
2017,08,22,02,33,14.20
2017,08,22,02,34,14.20
2017,08,22,02,35,14.20
2017,08,22,02,36,14.20
2017,08,22,02,37,14.20
2017,08,22,02,38,14.20
2017,08,22,02,39,14.20
2017,08,22,02,40,14.20
2017,08,22,02,41,14.20
2017,08,22,02,42,14.20
2017,08,22,02,43,14.20
2017,08,22,02,44,14.20
2017,08,22,02,45,14.20
2017,08,22,02,46,14.20
2017,08,22,02,47,14.20
2017,08,22,02,48,14.20
2017,08,22,02,49,14.20
2017,08,22,02,50,14.20
2017,08,22,02,51,14.20
2017,08,22,02,52,14.20
2017,08,22,02,53,14.20
2017,08,22,02,54,14.20
2017,08,22,02,55,14.20
2017,08,22,02,56,14.20
2017,08,22,02,57,14.20
2017,08,22,02,58,14.20
2017,08,22,02,59,14.20
2017,08,22,03,00,14.20
2017,08,22,03,01,14.20
2017,08,22,03,02,14.20
2017,08,22,03,03,14.20
2017,08,22,03,04,14.20
2017,08,22,03,05,14.20
2017,08,22,03,06,14.20
2017,08,22,03,07,14.20
2017,08,22,03,08,14.10
2017,08,22,03,09,14.10
2017,08,22,03,10,14.20
2017,08,22,03,11,14.10
2017,08,22,03,12,14.10
2017,08,22,03,13,14.10
2017,08,22,03,14,14.10
2017,08,22,03,15,14.10
2017,08,22,03,16,14.10
2017,08,22,03,17,14.10
2017,08,22,03,18,14.10
2017,08,22,03,19,14.10
2017,08,22,03,20,14.10
2017,08,22,03,21,14.10
2017,08,22,03,22,14.10
2017,08,22,03,23,14.00
2017,08,22,03,24,14.00
2017,08,22,03,25,14.00
2017,08,22,03,26,14.00
2017,08,22,03,27,13.90
2017,08,22,03,28,13.90
2017,08,22,03,29,13.90
2017,08,22,03,30,13.90
2017,08,22,03,31,13.90
2017,08,22,03,32,13.90
2017,08,22,03,33,13.90
2017,08,22,03,34,13.90
2017,08,22,03,35,13.90
2017,08,22,03,36,13.90
2017,08,22,03,37,13.90
2017,08,22,03,38,13.90
2017,08,22,03,39,13.90
2017,08,22,03,40,13.90
2017,08,22,03,41,13.90
2017,08,22,03,42,13.90
2017,08,22,03,43,13.90
2017,08,22,03,44,13.90
2017,08,22,03,45,13.90
2017,08,22,03,46,13.90
2017,08,22,03,47,13.80
2017,08,22,03,48,13.80
2017,08,22,03,49,13.80
2017,08,22,03,50,13.80
2017,08,22,03,51,13.80
2017,08,22,03,52,13.80
2017,08,22,03,53,13.80
2017,08,22,03,54,13.80
2017,08,22,03,55,13.80
2017,08,22,03,56,13.80
2017,08,22,03,57,13.80
2017,08,22,03,58,13.80
2017,08,22,03,59,13.80
2017,08,22,04,00,13.80
2017,08,22,04,01,13.80
2017,08,22,04,02,13.80
2017,08,22,04,03,13.80
2017,08,22,04,04,13.80
2017,08,22,04,05,13.70
2017,08,22,04,06,13.70
2017,08,22,04,07,13.70
2017,08,22,04,08,13.70
2017,08,22,04,09,13.70
2017,08,22,04,10,13.70
2017,08,22,04,11,13.70
2017,08,22,04,12,13.70
2017,08,22,04,13,13.80
2017,08,22,04,14,13.80
2017,08,22,04,15,13.80
2017,08,22,04,16,13.80
2017,08,22,04,17,13.80
2017,08,22,04,18,13.80
2017,08,22,04,19,13.80
2017,08,22,04,20,13.80
2017,08,22,04,21,13.90
2017,08,22,04,22,13.90
2017,08,22,04,23,13.90
2017,08,22,04,24,13.90
2017,08,22,04,25,13.90
2017,08,22,04,26,13.90
2017,08,22,04,27,13.90
2017,08,22,04,28,14.00
2017,08,22,04,29,14.00
2017,08,22,04,30,14.00
2017,08,22,04,31,14.00
2017,08,22,04,32,14.00
2017,08,22,04,33,13.90
2017,08,22,04,34,13.90
2017,08,22,04,35,13.90
2017,08,22,04,36,13.90
2017,08,22,04,37,13.90
2017,08,22,04,38,13.90
2017,08,22,04,39,13.90
2017,08,22,04,40,13.90
2017,08,22,04,41,13.90
2017,08,22,04,42,13.90
2017,08,22,04,43,13.90
2017,08,22,04,44,13.90
2017,08,22,04,45,13.90
2017,08,22,04,46,13.90
2017,08,22,04,47,13.90
2017,08,22,04,48,13.90
2017,08,22,04,49,13.90
2017,08,22,04,50,14.00
2017,08,22,04,51,14.10
2017,08,22,04,52,14.10
2017,08,22,04,53,14.10
2017,08,22,04,54,14.10
2017,08,22,04,55,14.20
2017,08,22,04,56,14.20
2017,08,22,04,57,14.20
2017,08,22,04,58,14.20
2017,08,22,04,59,14.20
2017,08,22,05,00,14.30
2017,08,22,05,01,14.30
2017,08,22,05,02,14.30
2017,08,22,05,03,14.40
2017,08,22,05,04,14.40
2017,08,22,05,05,14.40
2017,08,22,05,06,14.40
2017,08,22,05,07,14.50
2017,08,22,05,08,14.50
2017,08,22,05,09,14.60
2017,08,22,05,10,14.60
2017,08,22,05,11,14.70
2017,08,22,05,12,14.70
2017,08,22,05,13,14.70
2017,08,22,05,14,14.70
2017,08,22,05,15,14.70
2017,08,22,05,16,14.70
2017,08,22,05,17,14.70
2017,08,22,05,18,14.70
2017,08,22,05,19,14.70
2017,08,22,05,20,14.80
2017,08,22,05,21,14.80
2017,08,22,05,22,14.80
2017,08,22,05,23,14.80
2017,08,22,05,24,14.80
2017,08,22,05,25,14.80
2017,08,22,05,26,14.80
2017,08,22,05,27,14.80
2017,08,22,05,28,14.80
2017,08,22,05,29,14.80
2017,08,22,05,30,14.80
2017,08,22,05,31,14.70
2017,08,22,05,32,14.70
2017,08,22,05,33,14.70
2017,08,22,05,34,14.70
2017,08,22,05,35,14.70
2017,08,22,05,36,14.70
2017,08,22,05,37,14.70
2017,08,22,05,38,14.70
2017,08,22,05,39,14.70
2017,08,22,05,40,14.70
2017,08,22,05,41,14.70
2017,08,22,05,42,14.70
2017,08,22,05,43,14.70
2017,08,22,05,44,14.70
2017,08,22,05,45,14.70
2017,08,22,05,46,14.60
2017,08,22,05,47,14.60
2017,08,22,05,48,14.60
2017,08,22,05,49,14.60
2017,08,22,05,50,14.60
2017,08,22,05,51,14.60
2017,08,22,05,52,14.60
2017,08,22,05,53,14.60
2017,08,22,05,54,14.60
2017,08,22,05,55,14.60
2017,08,22,05,56,14.60
2017,08,22,05,57,14.60
2017,08,22,05,58,14.60
2017,08,22,05,59,14.60
2017,08,22,06,00,14.60
2017,08,22,06,01,14.60
2017,08,22,06,02,14.60
2017,08,22,06,03,14.60
2017,08,22,06,04,14.60
2017,08,22,06,05,14.60
2017,08,22,06,06,14.60
2017,08,22,06,07,14.60
2017,08,22,06,08,14.60
2017,08,22,06,09,14.60
2017,08,22,06,10,14.60
2017,08,22,06,11,14.50
2017,08,22,06,12,14.50
2017,08,22,06,13,14.50
2017,08,22,06,14,14.50
2017,08,22,06,15,14.50
2017,08,22,06,16,14.60
2017,08,22,06,17,14.60
2017,08,22,06,18,14.60
2017,08,22,06,19,14.60
2017,08,22,06,20,14.60
2017,08,22,06,21,14.60
2017,08,22,06,22,14.60
2017,08,22,06,23,14.60
2017,08,22,06,24,14.50
2017,08,22,06,25,14.50
2017,08,22,06,26,14.60
2017,08,22,06,27,14.60
2017,08,22,06,28,14.60
2017,08,22,06,29,14.60
2017,08,22,06,30,14.60
2017,08,22,06,31,14.60
2017,08,22,06,32,14.60
2017,08,22,06,33,14.60
2017,08,22,06,34,14.60
2017,08,22,06,35,14.60
2017,08,22,06,36,14.60
2017,08,22,06,37,14.60
2017,08,22,06,38,14.60
2017,08,22,06,39,14.60
2017,08,22,06,40,14.60
2017,08,22,06,41,14.60
2017,08,22,06,42,14.60
2017,08,22,06,43,14.60
2017,08,22,06,44,14.60
2017,08,22,06,45,14.60
2017,08,22,06,46,14.60
2017,08,22,06,47,14.60
2017,08,22,06,48,14.60
2017,08,22,06,49,14.60
2017,08,22,06,50,14.60
2017,08,22,06,51,14.50
2017,08,22,06,52,14.50
2017,08,22,06,53,14.50
2017,08,22,06,54,14.50
2017,08,22,06,55,14.50
2017,08,22,06,56,14.40
2017,08,22,06,57,14.40
2017,08,22,06,58,14.40
2017,08,22,06,59,14.40
2017,08,22,07,00,14.40
2017,08,22,07,01,14.40
2017,08,22,07,02,14.40
2017,08,22,07,03,14.40
2017,08,22,07,04,14.40
2017,08,22,07,05,14.40
2017,08,22,07,06,14.40
2017,08,22,07,07,14.50
2017,08,22,07,08,14.50
2017,08,22,07,09,14.50
2017,08,22,07,10,14.60
2017,08,22,07,11,14.60
2017,08,22,07,12,14.70
2017,08,22,07,13,14.70
2017,08,22,07,14,14.70
2017,08,22,07,15,14.70
2017,08,22,07,16,14.80
2017,08,22,07,17,14.80
2017,08,22,07,18,14.80
2017,08,22,07,19,14.80
2017,08,22,07,20,14.80
2017,08,22,07,21,14.80
2017,08,22,07,22,14.90
2017,08,22,07,23,14.90
2017,08,22,07,24,14.90
2017,08,22,07,25,14.90
2017,08,22,07,26,15.00
2017,08,22,07,27,15.00
2017,08,22,07,28,15.00
2017,08,22,07,29,15.10
2017,08,22,07,30,15.10
2017,08,22,07,31,15.10
2017,08,22,07,32,15.10
2017,08,22,07,33,15.10
2017,08,22,07,34,15.10
2017,08,22,07,35,15.20
2017,08,22,07,36,15.20
2017,08,22,07,37,15.20
2017,08,22,07,38,15.30
2017,08,22,07,39,15.30
2017,08,22,07,40,15.40
2017,08,22,07,41,15.40
2017,08,22,07,42,15.50
2017,08,22,07,43,15.50
2017,08,22,07,44,15.60
2017,08,22,07,45,15.60
2017,08,22,07,46,15.70
2017,08,22,07,47,15.70
2017,08,22,07,48,15.80
2017,08,22,07,49,15.80
2017,08,22,07,50,15.90
2017,08,22,07,51,15.90
2017,08,22,07,52,16.00
2017,08,22,07,53,16.00
2017,08,22,07,54,16.10
2017,08,22,07,55,16.20
2017,08,22,07,56,16.20
2017,08,22,07,57,16.30
2017,08,22,07,58,16.30
2017,08,22,07,59,16.40
2017,08,22,08,00,16.50
2017,08,22,08,01,16.50
2017,08,22,08,02,16.60
2017,08,22,08,03,16.70
2017,08,22,08,04,16.70
2017,08,22,08,05,16.80
2017,08,22,08,06,16.80
2017,08,22,08,07,16.90
2017,08,22,08,08,16.90
2017,08,22,08,09,17.00
2017,08,22,08,10,17.10
2017,08,22,08,11,17.10
2017,08,22,08,12,17.20
2017,08,22,08,13,17.20
2017,08,22,08,14,17.20
2017,08,22,08,15,17.30
2017,08,22,08,16,17.30
2017,08,22,08,17,17.30
2017,08,22,08,18,17.40
2017,08,22,08,19,17.40
2017,08,22,08,20,17.50
2017,08,22,08,21,17.60
2017,08,22,08,22,17.60
2017,08,22,08,23,17.70
2017,08,22,08,24,17.70
2017,08,22,08,25,17.80
2017,08,22,08,26,17.80
2017,08,22,08,27,17.80
2017,08,22,08,28,17.90
2017,08,22,08,29,17.90
2017,08,22,08,30,18.00
2017,08,22,08,31,18.00
2017,08,22,08,32,18.10
2017,08,22,08,33,18.10
2017,08,22,08,34,18.20
2017,08,22,08,35,18.20
2017,08,22,08,36,18.20
2017,08,22,08,37,18.30
2017,08,22,08,38,18.30
2017,08,22,08,39,18.40
2017,08,22,08,40,18.40
2017,08,22,08,41,18.50
2017,08,22,08,42,18.60
2017,08,22,08,43,18.80
2017,08,22,08,44,18.90
2017,08,22,08,45,19.00
2017,08,22,08,46,19.10
2017,08,22,08,47,19.20
2017,08,22,08,48,19.40
2017,08,22,08,49,19.50
2017,08,22,08,50,19.60
2017,08,22,08,51,19.70
2017,08,22,08,52,19.90
2017,08,22,08,53,20.00
2017,08,22,08,54,20.10
2017,08,22,08,55,20.20
2017,08,22,08,56,20.30
2017,08,22,08,57,20.40
2017,08,22,08,58,20.50
2017,08,22,08,59,20.60
2017,08,22,09,00,20.60
2017,08,22,09,01,20.70
2017,08,22,09,02,20.80
2017,08,22,09,03,20.90
2017,08,22,09,04,21.00
2017,08,22,09,05,21.10
2017,08,22,09,06,21.20
2017,08,22,09,07,21.30
2017,08,22,09,08,21.30
2017,08,22,09,09,21.40
2017,08,22,09,10,21.50
2017,08,22,09,11,21.60
2017,08,22,09,12,21.60
2017,08,22,09,13,21.70
2017,08,22,09,14,21.80
2017,08,22,09,15,21.80
2017,08,22,09,16,21.80
2017,08,22,09,17,21.90
2017,08,22,09,18,21.90
2017,08,22,09,19,21.90
2017,08,22,09,20,22.00
2017,08,22,09,21,22.00
2017,08,22,09,22,22.00
2017,08,22,09,23,22.00
2017,08,22,09,24,21.90
2017,08,22,09,25,21.90
2017,08,22,09,26,21.80
2017,08,22,09,27,21.80
2017,08,22,09,28,21.70
2017,08,22,09,29,21.60
2017,08,22,09,30,21.50
2017,08,22,09,31,21.50
2017,08,22,09,32,21.40
2017,08,22,09,33,21.30
2017,08,22,09,34,21.20
2017,08,22,09,35,21.20
2017,08,22,09,36,21.20
2017,08,22,09,37,21.20
2017,08,22,09,38,21.20
2017,08,22,09,39,21.20
2017,08,22,09,40,21.20
2017,08,22,09,41,21.20
2017,08,22,09,42,21.20
2017,08,22,09,43,21.10
2017,08,22,09,44,21.00
2017,08,22,09,45,20.90
2017,08,22,09,46,20.80
2017,08,22,09,47,20.80
2017,08,22,09,48,20.80
2017,08,22,09,49,20.70
2017,08,22,09,50,20.70
2017,08,22,09,51,20.70
2017,08,22,09,52,20.70
2017,08,22,09,53,20.80
2017,08,22,09,54,20.80
2017,08,22,09,55,20.90
2017,08,22,09,56,20.90
2017,08,22,09,57,21.00
2017,08,22,09,58,21.10
2017,08,22,09,59,21.20
2017,08,22,10,00,21.20
2017,08,22,10,01,21.30
2017,08,22,10,02,21.40
2017,08,22,10,03,21.40
2017,08,22,10,04,21.50
2017,08,22,10,05,21.60
2017,08,22,10,06,21.70
2017,08,22,10,07,21.70
2017,08,22,10,08,21.70
2017,08,22,10,09,21.60
2017,08,22,10,10,21.50
2017,08,22,10,11,21.40
2017,08,22,10,12,21.30
2017,08,22,10,13,21.20
2017,08,22,10,14,21.20
2017,08,22,10,15,21.20
2017,08,22,10,16,21.20
2017,08,22,10,17,21.20
2017,08,22,10,18,21.30
2017,08,22,10,19,21.30
2017,08,22,10,20,21.30
2017,08,22,10,21,21.40
2017,08,22,10,22,21.40
2017,08,22,10,23,21.40
2017,08,22,10,24,21.30
2017,08,22,10,25,21.30
2017,08,22,10,26,21.20
2017,08,22,10,27,21.20
2017,08,22,10,28,21.10
2017,08,22,10,29,21.00
2017,08,22,10,30,21.00
2017,08,22,10,31,21.00
2017,08,22,10,32,21.00
2017,08,22,10,33,21.10
2017,08,22,10,34,21.10
2017,08,22,10,35,21.10
2017,08,22,10,36,21.20
2017,08,22,10,37,21.30
2017,08,22,10,38,21.40
2017,08,22,10,39,21.50
2017,08,22,10,40,21.60
2017,08,22,10,41,21.60
2017,08,22,10,42,21.70
2017,08,22,10,43,21.80
2017,08,22,10,44,21.90
2017,08,22,10,45,22.00
2017,08,22,10,46,22.10
2017,08,22,10,47,22.20
2017,08,22,10,48,22.30
2017,08,22,10,49,22.40
2017,08,22,10,50,22.40
2017,08,22,10,51,22.50
2017,08,22,10,52,22.50
2017,08,22,10,53,22.60
2017,08,22,10,54,22.50
2017,08,22,10,55,22.30
2017,08,22,10,56,22.10
2017,08,22,10,57,22.00
2017,08,22,10,58,21.90
2017,08,22,10,59,22.00
2017,08,22,11,00,22.00
2017,08,22,11,01,22.10
2017,08,22,11,02,22.20
2017,08,22,11,03,22.30
2017,08,22,11,04,22.30
2017,08,22,11,05,22.40
2017,08,22,11,06,22.50
2017,08,22,11,07,22.60
2017,08,22,11,08,22.70
2017,08,22,11,09,22.80
2017,08,22,11,10,22.90
2017,08,22,11,11,22.90
2017,08,22,11,12,23.00
2017,08,22,11,13,23.10
2017,08,22,11,14,23.20
2017,08,22,11,15,23.20
2017,08,22,11,16,23.20
2017,08,22,11,17,23.20
2017,08,22,11,18,23.20
2017,08,22,11,19,23.20
2017,08,22,11,20,23.20
2017,08,22,11,21,23.30
2017,08,22,11,22,23.30
2017,08,22,11,23,23.30
2017,08,22,11,24,23.40
2017,08,22,11,25,23.40
2017,08,22,11,26,23.50
2017,08,22,11,27,23.50
2017,08,22,11,28,23.60
2017,08,22,11,29,23.70
2017,08,22,11,30,23.70
2017,08,22,11,31,23.70
2017,08,22,11,32,23.70
2017,08,22,11,33,23.70
2017,08,22,11,34,23.70
2017,08,22,11,35,23.70
2017,08,22,11,36,23.70
2017,08,22,11,37,23.70
2017,08,22,11,38,23.70
2017,08,22,11,39,23.60
2017,08,22,11,40,23.40
2017,08,22,11,41,23.30
2017,08,22,11,42,23.10
2017,08,22,11,43,23.00
2017,08,22,11,44,22.90
2017,08,22,11,45,22.80
2017,08,22,11,46,22.70
2017,08,22,11,47,22.70
2017,08,22,11,48,22.60
2017,08,22,11,49,22.60
2017,08,22,11,50,22.60
2017,08,22,11,51,22.60
2017,08,22,11,52,22.60
2017,08,22,11,53,22.70
2017,08,22,11,54,22.80
2017,08,22,11,55,22.80
2017,08,22,11,56,22.90
2017,08,22,11,57,22.90
2017,08,22,11,58,22.80
2017,08,22,11,59,22.80
2017,08,22,12,00,22.70
2017,08,22,12,01,22.50
2017,08,22,12,02,22.30
2017,08,22,12,03,22.10
2017,08,22,12,04,22.00
2017,08,22,12,05,21.90
2017,08,22,12,06,21.80
2017,08,22,12,07,21.70
2017,08,22,12,08,21.70
2017,08,22,12,09,21.70
2017,08,22,12,10,21.70
2017,08,22,12,11,21.70
2017,08,22,12,12,21.70
2017,08,22,12,13,21.60
2017,08,22,12,14,21.50
2017,08,22,12,15,21.40
2017,08,22,12,16,21.30
2017,08,22,12,17,21.30
2017,08,22,12,18,21.30
2017,08,22,12,19,21.40
2017,08,22,12,20,21.50
2017,08,22,12,21,21.60
2017,08,22,12,22,21.70
2017,08,22,12,23,21.80
2017,08,22,12,24,22.00
2017,08,22,12,25,22.10
2017,08,22,12,26,22.20
2017,08,22,12,27,22.20
2017,08,22,12,28,22.20
2017,08,22,12,29,22.10
2017,08,22,12,30,22.10
2017,08,22,12,31,22.10
2017,08,22,12,32,22.10
2017,08,22,12,33,22.00
2017,08,22,12,34,22.00
2017,08,22,12,35,21.90
2017,08,22,12,36,21.90
2017,08,22,12,37,21.90
2017,08,22,12,38,21.90
2017,08,22,12,39,22.00
2017,08,22,12,40,22.10
2017,08,22,12,41,22.20
2017,08,22,12,42,22.30
2017,08,22,12,43,22.50
2017,08,22,12,44,22.60
2017,08,22,12,45,22.70
2017,08,22,12,46,22.80
2017,08,22,12,47,22.90
2017,08,22,12,48,23.00
2017,08,22,12,49,23.00
2017,08,22,12,50,23.10
2017,08,22,12,51,23.20
2017,08,22,12,52,23.30
2017,08,22,12,53,23.40
2017,08,22,12,54,23.50
2017,08,22,12,55,23.50
2017,08,22,12,56,23.50
2017,08,22,12,57,23.40
2017,08,22,12,58,23.40
2017,08,22,12,59,23.40
2017,08,22,13,00,23.40
2017,08,22,13,01,23.40
2017,08,22,13,02,23.40
2017,08,22,13,03,23.40
2017,08,22,13,04,23.40
2017,08,22,13,05,23.30
2017,08,22,13,06,23.30
2017,08,22,13,07,23.30
2017,08,22,13,08,23.30
2017,08,22,13,09,23.40
2017,08,22,13,10,23.50
2017,08,22,13,11,23.60
2017,08,22,13,12,23.70
2017,08,22,13,13,23.70
2017,08,22,13,14,23.80
2017,08,22,13,15,23.80
2017,08,22,13,16,23.80
2017,08,22,13,17,23.70
2017,08,22,13,18,23.60
2017,08,22,13,19,23.50
2017,08,22,13,20,23.50
2017,08,22,13,21,23.50
2017,08,22,13,22,23.40
2017,08,22,13,23,23.30
2017,08,22,13,24,23.30
2017,08,22,13,25,23.30
2017,08,22,13,26,23.30
2017,08,22,13,27,23.30
2017,08,22,13,28,23.30
2017,08,22,13,29,23.20
2017,08,22,13,30,23.10
2017,08,22,13,31,23.10
2017,08,22,13,32,23.10
2017,08,22,13,33,23.00
2017,08,22,13,34,22.90
2017,08,22,13,35,22.90
2017,08,22,13,36,22.90
2017,08,22,13,37,22.70
2017,08,22,13,38,22.60
2017,08,22,13,39,22.50
2017,08,22,13,40,22.20
2017,08,22,13,41,22.00
2017,08,22,13,42,21.70
2017,08,22,13,43,21.50
2017,08,22,13,44,21.30
2017,08,22,13,45,21.20
2017,08,22,13,46,21.10
2017,08,22,13,47,21.00
2017,08,22,13,48,20.90
2017,08,22,13,49,20.70
2017,08,22,13,50,20.60
2017,08,22,13,51,20.40
2017,08,22,13,52,20.30
2017,08,22,13,53,20.30
2017,08,22,13,54,20.30
2017,08,22,13,55,20.40
2017,08,22,13,56,20.40
2017,08,22,13,57,20.40
2017,08,22,13,58,20.50
2017,08,22,13,59,20.50
2017,08,22,14,00,20.60
2017,08,22,14,01,20.60
2017,08,22,14,02,20.70
2017,08,22,14,03,20.70
2017,08,22,14,04,20.80
2017,08,22,14,05,20.70
2017,08,22,14,06,20.50
2017,08,22,14,07,20.40
2017,08,22,14,08,20.30
2017,08,22,14,09,20.20
2017,08,22,14,10,20.10
2017,08,22,14,11,20.00
2017,08,22,14,12,19.90
2017,08,22,14,13,19.80
2017,08,22,14,14,19.90
2017,08,22,14,15,20.10
2017,08,22,14,16,20.10
2017,08,22,14,17,20.10
2017,08,22,14,18,20.10
2017,08,22,14,19,20.20
2017,08,22,14,20,20.20
2017,08,22,14,21,20.30
2017,08,22,14,22,20.30
2017,08,22,14,23,20.30
2017,08,22,14,24,20.40
2017,08,22,14,25,20.50
2017,08,22,14,26,20.60
2017,08,22,14,27,20.60
2017,08,22,14,28,20.50
2017,08,22,14,29,20.40
2017,08,22,14,30,20.30
2017,08,22,14,31,20.30
2017,08,22,14,32,20.30
2017,08,22,14,33,20.30
2017,08,22,14,34,20.30
2017,08,22,14,35,20.30
2017,08,22,14,36,20.30
2017,08,22,14,37,20.20
2017,08,22,14,38,20.20
2017,08,22,14,39,20.10
2017,08,22,14,40,20.00
2017,08,22,14,41,19.90
2017,08,22,14,42,19.80
2017,08,22,14,43,19.70
2017,08,22,14,44,19.60
2017,08,22,14,45,19.60
2017,08,22,14,46,19.70
2017,08,22,14,47,19.90
2017,08,22,14,48,20.10
2017,08,22,14,49,20.20
2017,08,22,14,50,20.10
2017,08,22,14,51,20.10
2017,08,22,14,52,20.10
2017,08,22,14,53,20.10
2017,08,22,14,54,20.10
2017,08,22,14,55,20.20
2017,08,22,14,56,20.30
2017,08,22,14,57,20.30
2017,08,22,14,58,20.40
2017,08,22,14,59,20.40
2017,08,22,15,00,20.40
2017,08,22,15,01,20.50
2017,08,22,15,02,20.70
2017,08,22,15,03,20.80
2017,08,22,15,04,20.70
2017,08,22,15,05,20.70
2017,08,22,15,06,20.70
2017,08,22,15,07,20.70
2017,08,22,15,08,20.70
2017,08,22,15,09,20.70
2017,08,22,15,10,20.70
2017,08,22,15,11,20.80
2017,08,22,15,12,20.80
2017,08,22,15,13,20.80
2017,08,22,15,14,20.80
2017,08,22,15,15,20.70
2017,08,22,15,16,20.70
2017,08,22,15,17,20.70
2017,08,22,15,18,20.80
2017,08,22,15,19,20.80
2017,08,22,15,20,20.80
2017,08,22,15,21,20.80
2017,08,22,15,22,20.70
2017,08,22,15,23,20.70
2017,08,22,15,24,20.60
2017,08,22,15,25,20.60
2017,08,22,15,26,20.60
2017,08,22,15,27,20.60
2017,08,22,15,28,20.60
2017,08,22,15,29,20.70
2017,08,22,15,30,20.90
2017,08,22,15,31,21.00
2017,08,22,15,32,21.10
2017,08,22,15,33,21.10
2017,08,22,15,34,21.20
2017,08,22,15,35,21.30
2017,08,22,15,36,21.30
2017,08,22,15,37,21.30
2017,08,22,15,38,21.30
2017,08,22,15,39,21.40
2017,08,22,15,40,21.40
2017,08,22,15,41,21.50
2017,08,22,15,42,21.60
2017,08,22,15,43,21.70
2017,08,22,15,44,21.70
2017,08,22,15,45,21.80
2017,08,22,15,46,21.90
2017,08,22,15,47,22.00
2017,08,22,15,48,22.10
2017,08,22,15,49,22.20
2017,08,22,15,50,22.20
2017,08,22,15,51,22.20
2017,08,22,15,52,22.20
2017,08,22,15,53,22.20
2017,08,22,15,54,22.10
2017,08,22,15,55,22.00
2017,08,22,15,56,21.90
2017,08,22,15,57,21.90
2017,08,22,15,58,21.80
2017,08,22,15,59,21.90
2017,08,22,16,00,22.00
2017,08,22,16,01,22.10
2017,08,22,16,02,22.20
2017,08,22,16,03,22.30
2017,08,22,16,04,22.30
2017,08,22,16,05,22.40
2017,08,22,16,06,22.40
2017,08,22,16,07,22.50
2017,08,22,16,08,22.50
2017,08,22,16,09,22.60
2017,08,22,16,10,22.70
2017,08,22,16,11,22.70
2017,08,22,16,12,22.70
2017,08,22,16,13,22.60
2017,08,22,16,14,22.70
2017,08,22,16,15,22.60
2017,08,22,16,16,22.50
2017,08,22,16,17,22.50
2017,08,22,16,18,22.40
2017,08,22,16,19,22.40
2017,08,22,16,20,22.40
2017,08,22,16,21,22.50
2017,08,22,16,22,22.50
2017,08,22,16,23,22.60
2017,08,22,16,24,22.60
2017,08,22,16,25,22.60
2017,08,22,16,26,22.60
2017,08,22,16,27,22.70
2017,08,22,16,28,22.80
2017,08,22,16,29,22.80
2017,08,22,16,30,22.80
2017,08,22,16,31,22.80
2017,08,22,16,32,22.70
2017,08,22,16,33,22.60
2017,08,22,16,34,22.40
2017,08,22,16,35,22.30
2017,08,22,16,36,22.30
2017,08,22,16,37,22.20
2017,08,22,16,38,22.10
2017,08,22,16,39,22.00
2017,08,22,16,40,21.90
2017,08,22,16,41,21.90
2017,08,22,16,42,21.90
2017,08,22,16,43,21.80
2017,08,22,16,44,21.90
2017,08,22,16,45,21.90
2017,08,22,16,46,22.00
2017,08,22,16,47,22.00
2017,08,22,16,48,22.10
2017,08,22,16,49,22.20
2017,08,22,16,50,22.20
2017,08,22,16,51,22.30
2017,08,22,16,52,22.30
2017,08,22,16,53,22.30
2017,08,22,16,54,22.30
2017,08,22,16,55,22.30
2017,08,22,16,56,22.30
2017,08,22,16,57,22.40
2017,08,22,16,58,22.40
2017,08,22,16,59,22.60
2017,08,22,17,00,22.70
2017,08,22,17,01,22.80
2017,08,22,17,02,22.90
2017,08,22,17,03,23.00
2017,08,22,17,04,23.10
2017,08,22,17,05,23.20
2017,08,22,17,06,23.30
2017,08,22,17,07,23.30
2017,08,22,17,08,23.40
2017,08,22,17,09,23.50
2017,08,22,17,10,23.50
2017,08,22,17,11,23.60
2017,08,22,17,12,23.60
2017,08,22,17,13,23.70
2017,08,22,17,14,23.70
2017,08,22,17,15,23.70
2017,08,22,17,16,23.80
2017,08,22,17,17,23.80
2017,08,22,17,18,23.80
2017,08,22,17,19,23.80